When you browse on this site, cookies collect data to enhance your experience and personalize the content and advertising you see.
Visit our Privacy Policy to learn more. By continuing to use the site, you agree to this use of cookies and data.
  • In Hungary
  • List of Countries
  • For 7 days
  • Water Temperature
  • Satellite Maps
  • Weather Map
  • News
  • Weather Widgets
  • user-avatar
    Login

    Hourly Weather Skalat

    Today, 21 November, Wednesday

    Time Temperature Precipitation Wind Pressure Humidity
    00:00 -5°C° 0 mm 5 mps 738 mmHg 87%
    01:00 -5°C° 0 mm 5 mps 738 mmHg 87%
    02:00 -2°C° 0 mm 3 mps 738 mmHg 89%
    03:00 -3°C° 0 mm 4 mps 738 mmHg 89%
    04:00 -4°C° 0 mm 4 mps 738 mmHg 90%
    05:00 -5°C° 0 mm 5 mps 737 mmHg 90%
    06:00 -5°C° 0 mm 5 mps 737 mmHg 90%
    07:00 -5°C° 0 mm 5 mps 737 mmHg 90%
    08:00 -5°C° 0 mm 5 mps 737 mmHg 89%
    09:00 -5°C° 0 mm 5 mps 737 mmHg 88%
    10:00 -4°C° 0 mm 5 mps 738 mmHg 87%
    11:00 -4°C° 0 mm 5 mps 738 mmHg 85%
    12:00 -4°C° 0 mm 5 mps 738 mmHg 85%
    13:00 -2°C° 0 mm 5 mps 738 mmHg 84%
    14:00 -2°C° 0 mm 4 mps 738 mmHg 83%
    15:00 -2°C° 0 mm 4 mps 738 mmHg 84%
    16:00 -3°C° 0 mm 4 mps 738 mmHg 86%
    17:00 -3°C° 0 mm 4 mps 738 mmHg 87%
    18:00 -2°C° 0 mm 3 mps 738 mmHg 88%
    19:00 -4°C° 0 mm 3 mps 738 mmHg 89%
    20:00 -4°C° 0 mm 3 mps 738 mmHg 91%
    21:00 -5°C° 0 mm 3 mps 738 mmHg 91%
    22:00 -5°C° 0 mm 3 mps 739 mmHg 92%
    23:00 -5°C° 0 mm 3 mps 739 mmHg 92%

    Tomorrow, 22 November, Thursday

    Time Temperature Precipitation Wind Pressure Humidity
    00:00 -5°C° 0 mm 3 mps 739 mmHg 93%
    01:00 -6°C° 0 mm 3 mps 739 mmHg 93%
    02:00 -5°C° 0 mm 2 mps 739 mmHg 93%
    03:00 -5°C° 0 mm 2 mps 739 mmHg 93%
    04:00 -5°C° 0 mm 2 mps 739 mmHg 93%
    05:00 -5°C° 0 mm 2 mps 739 mmHg 93%
    06:00 -6°C° 0 mm 2 mps 739 mmHg 93%
    07:00 -6°C° 0 mm 2 mps 739 mmHg 93%
    08:00 -6°C° 0 mm 2 mps 739 mmHg 93%
    09:00 -5°C° 0 mm 2 mps 739 mmHg 88%
    10:00 -4°C° 0 mm 2 mps 739 mmHg 83%
    11:00 -3°C° 0 mm 2 mps 739 mmHg 78%
    12:00 -2°C° 0 mm 2 mps 739 mmHg 76%
    13:00 -2°C° 0 mm 2 mps 739 mmHg 73%
    14:00 +1°C° 0 mm 1 mps 739 mmHg 70%
    15:00 0°C° 0 mm 1 mps 739 mmHg 74%
    16:00 -1°C° 0 mm 1 mps 739 mmHg 78%
    17:00 -2°C° 0 mm 1 mps 739 mmHg 82%
    18:00 -2°C° 0 mm 1 mps 739 mmHg 83%
    19:00 -3°C° 0 mm 0 mps 739 mmHg 83%
    20:00 -4°C° 0 mm 0 mps 739 mmHg 84%
    21:00 -4°C° 0 mm 0 mps 739 mmHg 84%
    22:00 -4°C° 0 mm 0 mps 739 mmHg 83%
    23:00 -4°C° 0 mm 0 mps 739 mmHg 83%

    Day after tomorrow, 23 November, Friday

    Time Temperature Precipitation Wind Pressure Humidity
    00:00 -4°C° 0 mm 0 mps 739 mmHg 82%
    01:00 -4°C° 0 mm 0 mps 740 mmHg 82%
    02:00 -4°C° 0 mm 0 mps 740 mmHg 82%
    03:00 -4°C° 0 mm 0 mps 740 mmHg 81%
    04:00 -4°C° 0 mm 0 mps 740 mmHg 81%
    05:00 -4°C° 0 mm 0 mps 740 mmHg 81%
    06:00 -4°C° 0 mm 0 mps 740 mmHg 81%
    07:00 -4°C° 0 mm 0 mps 740 mmHg 80%
    08:00 -4°C° 0 mm 0 mps 740 mmHg 80%
    09:00 -3°C° 0 mm 0 mps 741 mmHg 75%
    10:00 -1°C° 0 mm 1 mps 741 mmHg 71%
    11:00 0°C° 0 mm 1 mps 741 mmHg 66%
    12:00 +1°C° 0 mm 1 mps 741 mmHg 65%
    13:00 +1°C° 0 mm 1 mps 741 mmHg 64%
    14:00 +2°C° 0 mm 1 mps 741 mmHg 63%
    15:00 +1°C° 0 mm 1 mps 741 mmHg 68%
    16:00 -2°C° 0 mm 2 mps 741 mmHg 73%
    17:00 -3°C° 0 mm 2 mps 741 mmHg 77%
    18:00 -4°C° 0 mm 2 mps 740 mmHg 79%
    19:00 -4°C° 0 mm 2 mps 740 mmHg 80%
    20:00 -5°C° 0 mm 3 mps 740 mmHg 81%
    21:00 -6°C° 0 mm 3 mps 740 mmHg 80%
    22:00 -6°C° 0 mm 3 mps 740 mmHg 79%
    23:00 -6°C° 0 mm 3 mps 740 mmHg 79%

    24 November, Saturday

    Time Temperature Precipitation Wind Pressure Humidity
    00:00 -6°C° 0 mm 3 mps 739 mmHg 79%
    01:00 -6°C° 0 mm 3 mps 739 mmHg 79%
    02:00 -6°C° 0 mm 3 mps 739 mmHg 79%
    03:00 -6°C° 0 mm 3 mps 738 mmHg 80%
    04:00 -6°C° 0 mm 3 mps 738 mmHg 82%
    05:00 -6°C° 0 mm 3 mps 737 mmHg 83%
    06:00 -6°C° 0 mm 3 mps 737 mmHg 84%
    07:00 -6°C° 0 mm 3 mps 737 mmHg 85%
    08:00 -6°C° 0 mm 3 mps 736 mmHg 86%
    09:00 -5°C° 0 mm 3 mps 736 mmHg 84%
    10:00 -4°C° 0 mm 3 mps 736 mmHg 81%
    11:00 -2°C° 0 mm 3 mps 735 mmHg 79%
    12:00 -2°C° 0 mm 3 mps 735 mmHg 79%
    13:00 -1°C° 0 mm 3 mps 734 mmHg 79%
    14:00 -1°C° 0 mm 3 mps 734 mmHg 79%
    15:00 -1°C° 0 mm 3 mps 734 mmHg 82%
    16:00 -2°C° 0 mm 3 mps 733 mmHg 86%
    17:00 -4°C° 0 mm 3 mps 733 mmHg 90%
    18:00 -4°C° 0 mm 3 mps 733 mmHg 90%
    19:00 -4°C° 0 mm 3 mps 733 mmHg 90%
    20:00 -4°C° 0 mm 3 mps 732 mmHg 90%
    21:00 -2°C° 0 mm 3 mps 732 mmHg 90%
    22:00 -2°C° 0 mm 3 mps 732 mmHg 90%
    23:00 -2°C° 0 mm 2 mps 732 mmHg 90%

    25 November, Sunday

    Time Temperature Precipitation Wind Pressure Humidity
    00:00 -1°C° 0.1 mm 2 mps 732 mmHg 90%
    01:00 -1°C° 0.1 mm 2 mps 731 mmHg 91%
    02:00 -1°C° 0.1 mm 2 mps 731 mmHg 91%
    03:00 -1°C° 0.1 mm 2 mps 731 mmHg 91%
    04:00 +1°C° 0.1 mm 2 mps 730 mmHg 91%
    05:00 +1°C° 0.1 mm 2 mps 730 mmHg 92%
    06:00 +1°C° 0.5 mm 2 mps 730 mmHg 92%
    07:00 +1°C° 0.5 mm 2 mps 730 mmHg 93%
    08:00 +1°C° 0.5 mm 2 mps 730 mmHg 94%
    09:00 +2°C° 0.1 mm 2 mps 730 mmHg 93%
    10:00 +3°C° 0.1 mm 2 mps 730 mmHg 91%
    11:00 +3°C° 0.1 mm 2 mps 730 mmHg 90%
    12:00 +4°C° 0 mm 2 mps 729 mmHg 90%
    13:00 +4°C° 0 mm 2 mps 729 mmHg 90%
    14:00 +4°C° 0 mm 2 mps 729 mmHg 90%
    15:00 +4°C° 0 mm 2 mps 729 mmHg 90%
    16:00 +3°C° 0 mm 2 mps 729 mmHg 91%
    17:00 +4°C° 0 mm 1 mps 729 mmHg 91%
    18:00 +4°C° 0 mm 1 mps 729 mmHg 92%
    19:00 +4°C° 0 mm 1 mps 729 mmHg 92%
    20:00 +4°C° 0 mm 1 mps 729 mmHg 93%
    21:00 +4°C° 0 mm 1 mps 728 mmHg 93%
    22:00 +3°C° 0 mm 1 mps 728 mmHg 93%
    23:00 +3°C° 0 mm 1 mps 728 mmHg 94%

    26 November, Monday

    Time Temperature Precipitation Wind Pressure Humidity
    00:00 +3°C° 0 mm 1 mps 728 mmHg 94%
    01:00 +3°C° 0 mm 1 mps 728 mmHg 94%
    02:00 +3°C° 0 mm 1 mps 728 mmHg 94%
    03:00 +3°C° 0 mm 1 mps 727 mmHg 95%
    04:00 +3°C° 0 mm 1 mps 727 mmHg 95%
    05:00 +3°C° 0 mm 1 mps 727 mmHg 95%
    06:00 +1°C° 0 mm 2 mps 727 mmHg 96%
    07:00 +1°C° 0 mm 2 mps 727 mmHg 96%
    08:00 +1°C° 0 mm 2 mps 727 mmHg 96%
    09:00 +1°C° 0 mm 2 mps 727 mmHg 94%
    10:00 0°C° 0 mm 3 mps 728 mmHg 92%
    11:00 +1°C° 0 mm 3 mps 728 mmHg 89%
    12:00 0°C° 0 mm 4 mps 728 mmHg 88%
    13:00 0°C° 0 mm 4 mps 728 mmHg 87%
    14:00 0°C° 0 mm 4 mps 728 mmHg 85%
    15:00 -1°C° 0 mm 4 mps 728 mmHg 85%
    16:00 -1°C° 0 mm 5 mps 728 mmHg 86%
    17:00 -1°C° 0 mm 5 mps 729 mmHg 86%
    18:00 -2°C° 0.1 mm 5 mps 729 mmHg 85%
    19:00 -2°C° 0.1 mm 5 mps 729 mmHg 85%
    20:00 -4°C° 0.1 mm 5 mps 730 mmHg 84%
    21:00 -5°C° 0 mm 5 mps 730 mmHg 82%
    22:00 -5°C° 0 mm 6 mps 730 mmHg 80%
    23:00 -6°C° 0 mm 6 mps 730 mmHg 79%
    Show more